Location: Unspecified
(0.0000°N, 0.0000°E)
Time: 06:04:41
(UTC+00:00)

XW-2F - Pass Details

Date: 13 July 2020
Orbit: 501 x 522 km, 97.5° (Epoch: 13 August)

Event Time Altitude Azimuth Distance (km) Brightness Sun altitude
Rises 18:38:07 0° 205° (SSW) 2,614 ? -7.5°
Reaches altitude 10° 18:41:36 10° 241° (WSW) 1,730 ? -8.3°
Maximum altitude 18:42:45 11° 259° (WSW) 1,656 ? -8.6°
Drops below altitude 10° 18:43:54 10° 277° (W) 1,731 ? -8.8°
Sets 18:47:24 0° 312° (NW) 2,619 ? -9.6°
